[[{"header":{"parameterUnit":"m.s-1","parameterCategory":1,"la1":30.2991,"la2":30.254,"lo1":-89.0895,"lo2":-89.0444,"dy":0.0017,"dx":0.0017,"nx":28,"ny":28,"refTime":"2023-10-29T03:00:00:Z","depth":0,"parameterNumber":2,"parameterNumberName":"U-component_of_WINDS"},"data":[0,0,0,0,0,0,0,0,0,0,0,0,0,0,0,0,0,0,0,0,0,0,0,0,0,0,0,0,0,0,0,0,0,0,0,0,0,0,0,0,0,0,0,0,0,0,0,0,0,0,0,0,0,0,0,0,0,0,-1.5387,-1.5387,0,-1.5373,-1.5373,-1.5373,-1.5335,-1.5334,-1.5333,-1.5333,-1.5319,-1.5319,-1.532,0,0,0,0,0,0,0,0,0,0,0,0,0,-1.5382,-1.5383,-1.5387,-1.5387,-1.5387,-1.5373,-1.5373,-1.5373,-1.5335,-1.5334,-1.5333,-1.5332,-1.5319,-1.5319,-1.532,0,0,0,0,0,0,0,0,0,0,0,0,0,-1.5378,-1.5383,-1.5387,-1.5366,-1.5364,-1.5373,-1.5373,-1.5373,-1.5335,-1.5334,-1.5333,-1.5332,-1.5318,-1.5319,-1.532,-1.5348,0,0,-1.5321,-1.5322,0,0,0,0,0,0,0,0,-1.5378,-1.5378,-1.537,-1.5368,-1.5366,-1.5355,-1.5366,-1.5364,-1.5336,-1.5346,-1.5333,-1.5331,-1.5332,-1.5331,-1.5331,-1.5347,-1.5347,-1.5322,-1.5322,-1.5322,-1.5322,0,0,0,0,0,0,0,-1.5379,-1.5379,-1.5382,-1.5369,-1.5367,-1.5358,-1.5356,-1.5366,-1.5346,-1.5345,-1.5343,-1.5341,-1.533,-1.5331,-1.5331,-1.5346,-1.5321,-1.5322,-1.5322,-1.5323,-1.5385,-1.5386,0,0,0,0,0,0,-1.5382,-1.5379,-1.5382,-1.5381,-1.5369,-1.5359,-1.5357,-1.5359,-1.5346,-1.5343,-1.5342,-1.534,-1.533,-1.533,-1.533,-1.5362,-1.5322,-1.5323,-1.5323,-1.5384,-1.5385,-1.5387,0,0,0,0,0,0,-1.5382,-1.5382,-1.5383,-1.5379,-1.5379,-1.536,-1.5363,-1.536,-1.536,-1.5344,-1.534,-1.5346,-1.5329,-1.5329,-1.5344,-1.5361,-1.5323,-1.5323,-1.5382,-1.5384,-1.5386,-1.5426,0,0,0,0,0,0,-1.5382,-1.5383,-1.5393,-1.538,-1.5379,-1.5396,-1.5365,-1.536,-1.5361,-1.5357,-1.5346,-1.5343,-1.5328,-1.5343,-1.5344,-1.5361,-1.5324,-1.5381,-1.5383,-1.5385,-1.5423,-1.5429,-1.5434,0,0,0,0,0,-1.5382,-1.5405,-1.5393,-1.5394,-1.5391,-1.5397,-1.5397,-1.5379,-1.5363,-1.5373,-1.5362,-1.5344,-1.5359,-1.5345,-1.5346,-1.5363,-1.5379,-1.5382,-1.5385,-1.5421,-1.5428,-1.5434,0,0,0,0,0,0,-1.542,-1.5402,-1.539,-1.5409,-1.5405,-1.5391,-1.5403,-1.5387,-1.5388,-1.5384,-1.5362,-1.536,-1.5378,-1.5372,-1.5356,-1.539,-1.5366,-1.537,-1.5393,-1.54,-1.5405,-1.5406,-1.5324,0,0,0,0,0,-1.5431,-1.5437,-1.5421,-1.544,-1.5438,-1.5421,-1.5423,-1.541,-1.5405,-1.5403,-1.5393,-1.5389,-1.5393,-1.5396,-1.5399,-1.5423,-1.542,-1.5435,-1.5441,-1.5445,-1.5448,-1.546,-1.5467,-1.5396,-1.5396,-1.5396,0,0,-1.5452,-1.5444,-1.5449,-1.5447,-1.5442,-1.5449,-1.542,-1.5429,-1.5434,-1.5404,-1.5417,-1.541,-1.5405,-1.5424,-1.5432,-1.5419,-1.5467,-1.5449,-1.5453,-1.5453,-1.5464,-1.5471,-1.5477,-1.5398,-1.5398,-1.5398,0,0,-1.5496,-1.549,-1.5505,-1.5501,-1.5494,-1.5483,-1.5486,-1.5475,-1.5469,-1.5482,-1.546,-1.5466,-1.5474,-1.547,-1.5469,-1.5513,-1.5496,-1.5515,-1.5544,-1.5556,-1.5561,-1.5566,-1.5582,-1.5587,-1.5518,-1.5518,-1.5518,0,-1.5524,-1.5533,-1.5514,-1.5524,-1.5524,-1.5499,-1.5514,-1.5511,-1.5505,-1.5506,-1.5493,-1.5501,-1.5496,-1.5514,-1.5525,-1.5525,-1.5529,-1.5515,-1.5562,-1.5567,-1.5571,-1.5585,-1.5591,-1.552,-1.552,-1.552,-1.552,0,-1.5568,-1.5575,-1.5588,-1.5583,-1.5585,-1.5598,-1.5581,-1.5585,-1.5572,-1.5563,-1.5576,-1.5569,-1.557,-1.5573,-1.5561,-1.559,-1.5582,-1.5566,-1.5542,-1.558,-1.5593,-1.5599,-1.5524,-1.5523,-1.5522,-1.5522,0,0,-1.5633,-1.5619,-1.5624,-1.5622,-1.5613,-1.5618,-1.563,-1.5631,-1.5635,-1.5633,-1.5642,-1.5649,-1.5634,-1.5634,-1.5621,-1.5632,-1.5667,-1.5614,-1.5613,-1.5623,-1.5698,-1.571,-1.5717,-1.5656,-1.5657,-1.5657,-1.5698,0,-1.5674,-1.5693,-1.5677,-1.5699,-1.5705,-1.5681,-1.5692,-1.5688,-1.568,-1.5684,-1.5675,-1.568,-1.566,-1.566,-1.567,-1.566,-1.5681,-1.5657,-1.5664,-1.5664,-1.5665,-1.5723,-1.5736,-1.5775,-1.5704,-1.5704,-1.5705,0,-1.5723,-1.5723,-1.5746,-1.5736,-1.5738,-1.5748,-1.5748,-1.5752,-1.5748,-1.5741,-1.5741,-1.5725,-1.5737,-1.5714,-1.5729,-1.5713,-1.5716,-1.5712,-1.5713,-1.5712,-1.5686,-1.5724,-1.5787,-1.5793,-1.5713,-1.5712,-1.5712,0,-1.5768,-1.5774,-1.5788,-1.5787,-1.5777,-1.5784,-1.578,-1.5774,-1.5776,-1.5776,-1.5777,-1.5779,-1.5779,-1.5781,-1.5767,-1.5751,-1.5784,-1.576,-1.5779,-1.5779,-1.5786,-1.5785,-1.585,-1.5789,-1.5788,-1.5788,-1.5788,0,-1.5815,-1.5829,-1.5808,-1.5817,-1.5833,-1.5815,-1.5832,-1.5825,-1.582,-1.5828,-1.5808,-1.5815,-1.5796,-1.5802,-1.579,-1.5805,-1.5806,-1.5801,-1.5797,-1.5802,-1.5802,-1.5802,-1.5799,-1.579,-1.579,-1.5789,-1.5789,0,-1.5867,-1.5854,-1.5868,-1.5857,-1.5854,-1.5867,-1.5857,-1.5865,-1.5856,-1.5866,-1.5867,-1.5853,-1.5858,-1.5844,-1.5848,-1.584,-1.5861,-1.5854,-1.5863,-1.586,-1.588,-1.5878,-1.5945,-1.5953,-1.5888,-1.5888,-1.5889,0,-1.5897,-1.5908,-1.5898,-1.5902,-1.5899,-1.5905,-1.5906,-1.589,-1.5892,-1.5888,-1.5897,-1.5901,-1.5903,-1.5913,-1.5903,-1.5906,-1.5898,-1.5922,-1.5899,-1.5903,-1.5898,-1.5897,-1.5898,-1.5926,-1.5927,-1.5928,-1.5928,0,-1.5952,-1.5945,-1.5948,-1.5949,-1.5952,-1.5952,-1.5951,-1.5955,-1.5937,-1.5942,-1.5947,-1.5949,-1.5953,-1.5957,-1.5958,-1.5954,-1.5938,-1.5936,-1.594,-1.5945,-1.5949,-1.5947,-1.5875,-1.5934,-1.5934,-1.5933,-1.5933,-1.5933,-1.5994,-1.6002,-1.5997,-1.6001,-1.5999,-1.5998,-1.6005,-1.5997,-1.6002,-1.6003,-1.5993,-1.6001,-1.5997,-1.5996,-1.5994,-1.6,-1.599,-1.5996,-1.5998,-1.5999,-1.6002,-1.5949,-1.6,-1.6,-1.6,-1.6,-1.6,0,-1.6047,-1.6043,-1.6047,-1.6046,-1.605,-1.6035,-1.6033,-1.6038,-1.6045,-1.6042,-1.6045,-1.6051,-1.6056,-1.6047,-1.605,-1.6056,-1.6049,-1.6058,-1.6056,-1.6056,-1.6012,-1.6007,-1.6063,-1.6063,-1.6063,-1.6063,-1.6063,-1.6063,-1.6075,-1.6089,-1.6082,-1.6094,-1.609,-1.6097,-1.6097,-1.6097,-1.6095,-1.6103,-1.6106,-1.6101,-1.6096,-1.6098,-1.6102,-1.6099,-1.6101,-1.6112,-1.6106,-1.6065,-1.6059,-1.6053,-1.6049,-1.6112,-1.6112,-1.615,-1.615,-1.615]},{"header":{"parameterUnit":"m.s-1","parameterCategory":1,"la1":30.2991,"la2":30.254,"lo1":-89.0895,"lo2":-89.0444,"dy":0.0017,"dx":0.0017,"nx":28,"ny":28,"refTime":"2023-10-29T03:00:00:Z","depth":0,"parameterNumber":3,"parameterNumberName":"V-component_of_WINDS"},"data":[0,0,0,0,0,0,0,0,0,0,0,0,0,0,0,0,0,0,0,0,0,0,0,0,0,0,0,0,0,0,0,0,0,0,0,0,0,0,0,0,0,0,0,0,0,0,0,0,0,0,0,0,0,0,0,0,0,0,2.3958,2.3959,0,2.403,2.403,2.4031,2.4024,2.4023,2.4022,2.4021,2.4089,2.4091,2.4094,0,0,0,0,0,0,0,0,0,0,0,0,0,2.3808,2.3811,2.3958,2.3959,2.396,2.4029,2.403,2.4031,2.4025,2.4023,2.4022,2.4021,2.4088,2.4091,2.4094,0,0,0,0,0,0,0,0,0,0,0,0,0,2.3876,2.3812,2.3958,2.3965,2.3966,2.4029,2.403,2.4032,2.4025,2.4023,2.4022,2.402,2.4087,2.4091,2.4095,2.4153,0,0,2.4108,2.4109,0,0,0,0,0,0,0,0,2.3872,2.3881,2.3963,2.3964,2.3966,2.4017,2.4002,2.4072,2.4025,2.4002,2.4021,2.4019,2.4065,2.4071,2.4088,2.4157,2.4159,2.4108,2.4111,2.4112,2.4114,0,0,0,0,0,0,0,2.3867,2.3878,2.3986,2.3964,2.3966,2.3962,2.397,2.4016,2.4042,2.4004,2.4004,2.4013,2.4066,2.4084,2.409,2.416,2.4108,2.4112,2.4114,2.4116,2.428,2.4282,0,0,0,0,0,0,2.3862,2.3874,2.3984,2.3988,2.3914,2.3966,2.3975,2.4002,2.4042,2.4046,2.4014,2.4012,2.4078,2.4085,2.4092,2.4164,2.4112,2.4116,2.4119,2.4278,2.4281,2.4283,0,0,0,0,0,0,2.3859,2.3872,2.3981,2.3931,2.3945,2.3971,2.4001,2.4004,2.4022,2.4049,2.4053,2.4028,2.4077,2.4086,2.4139,2.4166,2.4118,2.4122,2.4276,2.4279,2.4282,2.4307,0,0,0,0,0,0,2.3855,2.3871,2.3895,2.3932,2.3948,2.4028,2.4002,2.4007,2.403,2.4029,2.4064,2.4068,2.4076,2.4132,2.4143,2.4171,2.4125,2.4274,2.4277,2.4281,2.4304,2.431,2.4316,0,0,0,0,0,2.3849,2.3898,2.3896,2.3909,2.3979,2.403,2.4038,2.4049,2.4033,2.4056,2.4073,2.4067,2.4161,2.4138,2.4149,2.4179,2.4272,2.4276,2.428,2.4301,2.4309,2.4316,0,0,0,0,0,0,2.3861,2.3903,2.3901,2.3964,2.3994,2.4029,2.4059,2.4057,2.409,2.4087,2.4097,2.4105,2.4158,2.4173,2.4147,2.4238,2.4214,2.4221,2.4226,2.4234,2.424,2.4235,2.4129,0,0,0,0,0,2.3871,2.3912,2.3945,2.3996,2.4012,2.4033,2.4055,2.4061,2.4091,2.4103,2.4124,2.4152,2.4188,2.4212,2.4246,2.4306,2.4313,2.4332,2.4338,2.4343,2.4348,2.4381,2.439,2.4296,2.4296,2.4296,0,0,2.3892,2.392,2.3944,2.4,2.4023,2.4063,2.4043,2.4086,2.4115,2.4109,2.4161,2.4177,2.4209,2.4265,2.4291,2.428,2.4376,2.4348,2.4352,2.4355,2.4386,2.4395,2.4403,2.4299,2.4298,2.4298,0,0,2.3951,2.3976,2.4022,2.4047,2.4084,2.4097,2.4108,2.4144,2.4155,2.4207,2.4204,2.4237,2.4299,2.4322,2.4342,2.4409,2.4404,2.4419,2.4451,2.4482,2.449,2.4496,2.452,2.4529,2.4425,2.4425,2.4425,0,2.3971,2.4033,2.4045,2.4089,2.4113,2.4112,2.4158,2.418,2.4225,2.4241,2.4228,2.4306,2.4327,2.4389,2.4406,2.4422,2.4433,2.4416,2.4488,2.4495,2.4501,2.4524,2.4533,2.4427,2.4426,2.4426,2.4426,0,2.4057,2.41,2.4132,2.4179,2.4206,2.425,2.4268,2.4293,2.4296,2.4311,2.4363,2.4389,2.4429,2.4443,2.4446,2.4505,2.4498,2.4486,2.4463,2.4512,2.4533,2.4542,2.4429,2.4429,2.4428,2.4428,0,0,2.4126,2.4179,2.4191,2.4212,2.4252,2.4284,2.4328,2.4369,2.4391,2.4421,2.4458,2.451,2.45,2.4522,2.4527,2.4555,2.4606,2.454,2.4541,2.4552,2.4674,2.4682,2.4693,2.4603,2.4605,2.4606,2.4671,0,2.4189,2.4269,2.4281,2.4351,2.439,2.4389,2.4426,2.4454,2.4468,2.4502,2.4516,2.4554,2.4537,2.4551,2.4578,2.4595,2.4631,2.459,2.4636,2.4637,2.4629,2.4704,2.4713,2.4774,2.468,2.4681,2.4682,0,2.4274,2.431,2.4384,2.4419,2.4436,2.447,2.4509,2.4541,2.4572,2.458,2.4605,2.4606,2.465,2.4624,2.4683,2.4655,2.4674,2.4684,2.4687,2.4692,2.4663,2.4711,2.4793,2.4802,2.4696,2.4694,2.4693,0,2.4318,2.4384,2.4437,2.4455,2.4497,2.4521,2.4539,2.4569,2.4592,2.4625,2.464,2.4676,2.4696,2.4723,2.4734,2.4714,2.4792,2.4767,2.4799,2.4799,2.4817,2.4815,2.4903,2.4828,2.4828,2.4827,2.4827,0,2.4387,2.4433,2.4457,2.449,2.454,2.4552,2.4601,2.4618,2.4644,2.4679,2.4678,2.471,2.4722,2.4755,2.4763,2.4811,2.4819,2.4826,2.4828,2.4827,2.4826,2.484,2.4836,2.483,2.4829,2.4829,2.4828,0,2.4445,2.4463,2.4521,2.4557,2.4567,2.4602,2.4632,2.4662,2.4676,2.472,2.473,2.4751,2.4791,2.4804,2.485,2.4856,2.4911,2.4909,2.4902,2.4902,2.4934,2.4931,2.5034,2.5048,2.4963,2.4963,2.4964,0,2.4489,2.4525,2.4565,2.4589,2.4609,2.4647,2.4672,2.4684,2.471,2.4747,2.4773,2.4812,2.4845,2.4907,2.4925,2.4961,2.4959,2.4993,2.4965,2.4962,2.496,2.4959,2.4962,2.4998,2.4999,2.5,2.5001,0,2.4566,2.4573,2.461,2.465,2.4681,2.4712,2.4742,2.4761,2.4778,2.4806,2.4847,2.4872,2.4921,2.496,2.4996,2.5012,2.5009,2.5009,2.5019,2.5018,2.5013,2.5017,2.4917,2.5007,2.5006,2.5006,2.5006,2.5005,2.4619,2.465,2.4684,2.4724,2.4749,2.4777,2.4808,2.4826,2.4861,2.4904,2.4908,2.4952,2.498,2.5029,2.5047,2.5081,2.5071,2.5084,2.5088,2.5091,2.5094,2.5007,2.5087,2.5087,2.5087,2.5086,2.5086,0,2.4696,2.4717,2.4755,2.4799,2.483,2.4826,2.4859,2.4885,2.4925,2.4953,2.4985,2.5032,2.5069,2.509,2.5127,2.515,2.5149,2.5159,2.5158,2.5162,2.51,2.5089,2.5159,2.5159,2.5159,2.5159,2.5159,2.5159,2.474,2.4793,2.4804,2.4869,2.4889,2.4934,2.4954,2.4979,2.5001,2.5055,2.5086,2.51,2.5125,2.5164,2.5197,2.5202,2.5216,2.5227,2.5231,2.5173,2.5166,2.5159,2.5148,2.523,2.523,2.529,2.529,2.5291]}]]